CW3508 Weather Reports


Display with metric or nautical units.
time (UTC)temp
F
wind
direction
speed
MPH
gust
MPH
rain 1hr
in
rain 24hr
in
rain mn
in
humidity
%
barometer
mb
20260505010544 70 153 0.0 1.0 0.00 0.00 0.00 60 1009.7
20260505010029 70 153 0.0 0.0 0.00 0.00 0.00 60 1009.7
20260505005536 70 153 0.0 1.0 0.00 0.00 0.00 55 1009.7
20260505005052 71 153 0.0 1.0 0.00 0.00 0.00 54 1009.7
20260505004558 71 153 0.0 1.0 0.00 0.00 0.00 54 1009.7
20260505004035 71 153 0.0 1.0 0.00 0.00 0.00 54 1009.7
20260505003521 72 153 0.0 2.0 0.00 0.00 0.00 53 1009.7
20260505003022 72 153 1.0 3.0 0.00 0.00 0.00 54 1009.7
20260505002556 72 153 1.0 3.0 0.00 0.00 0.00 53 1009.6
20260505002019 73 162 1.0 3.0 0.00 0.00 0.00 53 1009.6
20260505001541 73 162 2.0 3.0 0.00 0.00 0.00 51 1009.6
20260505001042 73 164 1.0 2.0 0.00 0.00 0.00 53 1009.7
20260505000544 74 164 1.0 4.0 0.00 0.00 0.00 54 1009.7
20260505000039 74 164 1.0 4.0 0.00 0.00 0.00 52 1009.7
20260504235517 74 150 1.0 3.0 0.00 0.00 0.00 51 1009.7
20260504235034 74 150 0.0 2.0 0.00 0.00 0.00 52 1009.7
20260504234531 75 150 0.0 3.0 0.00 0.00 0.00 51 1009.7
20260504234038 75 150 1.0 7.0 0.00 0.00 0.00 49 1009.7
20260504233517 75 145 2.0 7.0 0.00 0.00 0.00 51 1009.7
20260504233018 76 201 0.0 2.0 0.00 0.00 0.00 49 1009.7
20260504232534 76 201 1.0 2.0 0.00 0.00 0.00 49 1009.7
20260504232042 76 200 1.0 3.0 0.00 0.00 0.00 47 1009.7
20260504231531 76 202 1.0 4.0 0.00 0.00 0.00 46 1009.7
20260504231052 76 120 1.0 4.0 0.00 0.00 0.00 45 1009.8
20260504230521 76 167 2.0 4.0 0.00 0.00 0.00 45 1009.8
20260504230022 76 113 1.0 4.0 0.00 0.00 0.00 47 1009.8
20260504225017 77 198 1.0 3.0 0.00 0.00 0.00 47 1009.8
20260504224524 77 198 1.0 3.0 0.00 0.00 0.00 46 1009.8
20260504224101 77 136 1.0 4.0 0.00 0.00 0.00 45 1009.9
20260504223525 77 156 1.0 5.0 0.00 0.00 0.00 46 1009.9
20260504223036 77 150 1.0 5.0 0.00 0.00 0.00 46 1009.9
20260504222532 77 133 1.0 6.0 0.00 0.00 0.00 44 1010.0
20260504222021 77 153 2.0 6.0 0.00 0.00 0.00 44 1010.0
20260504221531 77 155 1.0 6.0 0.00 0.00 0.00 43 1010.0
20260504221035 77 161 1.0 6.0 0.00 0.00 0.00 45 1010.2
20260504220049 77 132 1.0 3.0 0.00 0.00 0.00 42 1010.2
20260504215533 77 164 1.0 7.0 0.00 0.00 0.00 43 1010.2
20260504215034 78 138 3.0 8.0 0.00 0.00 0.00 43 1010.2
20260504214521 78 150 2.0 8.0 0.00 0.00 0.00 45 1010.2
20260504214021 78 183 3.0 7.0 0.00 0.00 0.00 44 1010.3
20260504213533 78 157 1.0 5.0 0.00 0.00 0.00 44 1010.3
20260504213023 78 146 2.0 5.0 0.00 0.00 0.00 47 1010.3
20260504212555 78 166 2.0 5.0 0.00 0.00 0.00 44 1010.3
20260504212033 78 157 1.0 5.0 0.00 0.00 0.00 44 1010.3
20260504211541 78 55 1.0 5.0 0.00 0.00 0.00 46 1010.3
20260504211031 78 188 1.0 5.0 0.00 0.00 0.00 45 1010.3
20260504210516 78 167 2.0 5.0 0.00 0.00 0.00 46 1010.3
20260504210049 78 252 1.0 6.0 0.00 0.00 0.00 47 1010.3
20260504205042 78 242 1.0 6.0 0.00 0.00 0.00 44 1010.6
20260504204523 78 126 2.0 6.0 0.00 0.00 0.00 43 1010.6
20260504204027 78 136 2.0 4.0 0.00 0.00 0.00 46 1010.6
20260504203514 78 133 2.0 4.0 0.00 0.00 0.00 45 1010.6
20260504203017 78 167 2.0 7.0 0.00 0.00 0.00 45 1010.6
20260504202516 78 184 2.0 7.0 0.00 0.00 0.00 45 1010.7
20260504202052 78 152 2.0 5.0 0.00 0.00 0.00 46 1010.7
20260504201515 78 161 1.0 4.0 0.00 0.00 0.00 45 1010.7
20260504201022 78 136 1.0 5.0 0.00 0.00 0.00 48 1010.8
20260504200019 78 210 2.0 5.0 0.00 0.00 0.00 43 1010.8
20260504195518 78 161 1.0 6.0 0.00 0.00 0.00 44 1011.2
20260504195048 78 159 1.0 6.0 0.00 0.00 0.00 44 1011.2
20260504194541 78 265 1.0 5.0 0.00 0.00 0.00 45 1011.2
20260504194045 78 211 1.0 4.0 0.00 0.00 0.00 48 1011.3
20260504193533 78 161 2.0 5.0 0.00 0.00 0.00 44 1011.3
20260504192545 78 142 1.0 7.0 0.00 0.00 0.00 45 1011.5
20260504192036 79 299 1.0 4.0 0.00 0.00 0.00 44 1011.5
20260504191534 79 178 1.0 5.0 0.00 0.00 0.00 43 1011.5
20260504191020 79 259 3.0 6.0 0.00 0.00 0.00 43 1011.8
20260504190523 79 190 2.0 4.0 0.00 0.00 0.00 42 1011.8
20260504190028 80 229 2.0 4.0 0.00 0.00 0.00 44 1011.8
20260504185520 80 157 2.0 5.0 0.00 0.00 0.00 45 1011.9
20260504185050 80 209 1.0 5.0 0.00 0.00 0.00 45 1011.9
20260504184516 80 167 2.0 5.0 0.00 0.00 0.00 46 1011.9
20260504184028 79 196 1.0 5.0 0.00 0.00 0.00 49 1012.2
20260504183541 80 208 1.0 5.0 0.00 0.00 0.00 46 1012.2
20260504183047 80 209 2.0 5.0 0.00 0.00 0.00 46 1012.2
20260504182516 80 152 1.0 3.0 0.00 0.00 0.00 47 1012.4
20260504182036 80 148 2.0 3.0 0.00 0.00 0.00 45 1012.4
20260504181530 80 127 1.0 2.0 0.00 0.00 0.00 46 1012.4
20260504181040 80 127 0.0 2.0 0.00 0.00 0.00 44 1012.5
20260504180533 81 127 1.0 3.0 0.00 0.00 0.00 47 1012.5
20260504180034 80 118 1.0 3.0 0.00 0.00 0.00 49 1012.5
20260504175531 79 225 1.0 3.0 0.00 0.00 0.00 49 1012.8
20260504175019 79 156 0.0 3.0 0.00 0.00 0.00 50 1012.8
20260504174535 78 172 1.0 4.0 0.00 0.00 0.00 45 1012.8
20260504174034 78 170 1.0 5.0 0.00 0.00 0.00 46 1012.9
20260504173533 78 127 1.0 5.0 0.00 0.00 0.00 46 1012.9
20260504173019 78 162 1.0 5.0 0.00 0.00 0.00 50 1012.9
20260504172533 78 155 1.0 5.0 0.00 0.00 0.00 45 1013.1
20260504172056 78 178 2.0 4.0 0.00 0.00 0.00 46 1013.1
20260504171018 77 223 1.0 4.0 0.00 0.00 0.00 49 1013.4
20260504170519 77 169 1.0 4.0 0.00 0.00 0.00 48 1013.4
20260504151043 67 153 1.0 5.0 0.00 0.00 0.00 70 1014.1
20260504150529 66 109 2.0 5.0 0.00 0.00 0.00 70 1014.1
20260504141025 57 154 1.0 3.0 0.00 0.00 0.00 87 1014.6
20260504140541 57 154 1.0 2.0 0.00 0.00 0.00 88 1014.6
20260504130520 51 152 0.0 0.0 0.00 0.00 0.00 94 1014.8
20260504110522 47 152 0.0 0.0 0.00 0.00 0.00 92 1014.0
20260504100600 48 152 0.0 0.0 0.00 0.00 0.00 92 1014.0
20260504081536 49 152 0.0 0.0 0.00 0.00 0.00 91 1013.9
20260504081037 49 152 0.0 0.0 0.00 0.00 0.00 91 1014.0
20260504080538 49 152 0.0 0.0 0.00 0.00 0.00 91 1014.0
20260504050536 52 152 0.0 1.0 0.00 0.00 0.00 87 1015.0
20260504045530 53 152 0.0 0.0 0.00 0.00 0.00 86 1015.0
20260504045034 53 152 0.0 0.0 0.00 0.00 0.00 86 1015.0
20260504044522 53 152 0.0 0.0 0.00 0.00 0.00 86 1015.0
20260504044033 53 152 0.0 1.0 0.00 0.00 0.00 86 1015.3
20260504043547 53 152 0.0 1.0 0.00 0.00 0.00 85 1015.3
20260504043059 53 152 0.0 0.0 0.00 0.00 0.00 85 1015.3
20260504042543 53 152 0.0 1.0 0.00 0.00 0.00 85 1015.3
20260504042055 53 152 0.0 1.0 0.00 0.00 0.00 85 1015.3
20260504041523 54 152 0.0 1.0 0.00 0.00 0.00 84 1015.3
20260504041028 54 152 0.0 1.0 0.00 0.00 0.00 84 1015.3
20260504040534 54 152 0.0 0.0 0.00 0.00 0.00 84 1015.3
20260504040034 54 152 0.0 0.0 0.00 0.00 0.00 83 1015.3
20260504035533 54 152 0.0 0.0 0.00 0.00 0.00 83 1015.5
20260504035017 54 152 0.0 0.0 0.00 0.00 0.00 82 1015.5
20260504034537 55 152 0.0 0.0 0.00 0.00 0.00 82 1015.5
20260504034042 55 152 0.0 0.0 0.00 0.00 0.00 81 1015.5
20260504033542 55 152 0.0 0.0 0.00 0.00 0.00 80 1015.5
20260504033028 55 152 0.0 0.0 0.00 0.00 0.00 80 1015.5
20260504032537 55 152 0.0 0.0 0.00 0.00 0.00 80 1015.5
20260504032038 55 152 0.0 0.0 0.00 0.00 0.00 79 1015.5
20260504031532 55 152 0.0 0.0 0.00 0.00 0.00 79 1015.5
20260504031019 56 152 0.0 0.0 0.00 0.00 0.00 79 1015.5
20260504030523 56 152 0.0 0.0 0.00 0.00 0.00 79 1015.5
20260504030032 56 152 0.0 0.0 0.00 0.00 0.00 79 1015.5
20260504025545 56 152 0.0 1.0 0.00 0.00 0.00 78 1015.4
20260504025039 56 152 0.0 1.0 0.00 0.00 0.00 78 1015.4
20260504024541 57 152 0.0 1.0 0.00 0.00 0.00 78 1015.4
20260504024028 57 152 0.0 1.0 0.00 0.00 0.00 77 1015.3
20260504023530 57 152 0.0 0.0 0.00 0.00 0.00 77 1015.3
20260504023032 57 152 0.0 1.0 0.00 0.00 0.00 77 1015.3
20260504022525 57 152 0.0 1.0 0.00 0.00 0.00 76 1015.0
20260504022020 58 152 0.0 0.0 0.00 0.00 0.00 76 1015.0
20260504021523 58 152 0.0 1.0 0.00 0.00 0.00 75 1015.0
20260504021026 58 152 0.0 1.0 0.00 0.00 0.00 74 1015.0
20260504020547 58 152 0.0 0.0 0.00 0.00 0.00 74 1015.0
20260504020033 58 152 0.0 0.0 0.00 0.00 0.00 74 1015.0
20260504015518 59 152 0.0 1.0 0.00 0.00 0.00 74 1015.0
20260504015056 59 152 0.0 1.0 0.00 0.00 0.00 73 1015.0
20260504014523 59 152 0.0 1.0 0.00 0.00 0.00 72 1015.0
20260504014028 60 152 0.0 0.0 0.00 0.00 0.00 71 1014.6
20260504013531 60 152 0.0 0.0 0.00 0.00 0.00 71 1014.6
20260504013019 61 152 0.0 0.0 0.00 0.00 0.00 70 1014.6
20260504012525 61 152 0.0 0.0 0.00 0.00 0.00 69 1014.6
20260504012032 61 152 0.0 0.0 0.00 0.00 0.00 67 1014.6
20260504011523 62 152 0.0 0.0 0.00 0.00 0.00 66 1014.6
20260504011025 62 152 0.0 0.0 0.00 0.00 0.00 64 1014.5